Valparaiso, FL

10:18 AM CDT on September 23, 2017 (GMT -0500)
Eglin Air Force Base

Weather History for KVPS - March, 2014

Change the Weather History Date:

Saturday, March 22, 2014

  Actual Average Record
Temperature  
Mean Temperature 64 °F -  
Max Temperature 73 °F 70 °F 87 °F (1982)
Min Temperature 57 °F 47 °F 25 °F (1960)
Growing Degree Days 14 (Base 50)    
Moisture  
Dew Point 60 °F    
Average Humidity 92    
Maximum Humidity 100    
Minimum Humidity 64    
Precipitation  
Precipitation 0.00 in - - ()
Sea Level Pressure  
Sea Level Pressure 30.06 in    
Wind  
Wind Speed 2 mph (NNW)    
Max Wind Speed 14 mph    
Max Gust Speed -    
Visibility 4 miles    
Events Fog    
Averages and records for this station are not official NWS values.
T = Trace of Precipitation, MM = Missing Value Source: NWS Daily Summary

Daily Weather History Graph

Daily Weather History Graph

Search for Another Location

Airport or City:

Trip Planner

Search our weather history database for the weather conditions in past years. The results will help you decide how hot, cold, wet, or windy it might be!

Date:

Astronomy

Mar. 22, 2014 Rise Set
Actual Time 6:47 AM CDT 6:58 PM CDT
Civil Twilight 6:23 AM CDT 7:22 PM CDT
Nautical Twilight 5:55 AM CDT 7:50 PM CDT
Astronomical Twilight 5:27 AM CDT 8:19 PM CDT
Moon No Moon Rise 10:50 AM CDT (3/22)
Length of Visible Light 12h 59m
Length of Day
12h 11m
Waning Gibbous, 65% of the Moon is Illuminated
Mar 22
Waning Gibbous
Mar 23
Last Quarter
Mar 30
New
Apr 7
First Quarter
Apr 15
Full

Hourly Weather History & Observations

Time (CDT) Temp. Dew Point Humidity Pressure Visibility Wind Dir Wind Speed Gust Speed Precip Events Conditions
12:35 AM 62.6 °F 62.6 °F 100% 30.03 in 5.0 mi Calm Calm - N/A   Mostly Cloudy
12:57 AM 62.2 °F 62.2 °F 100% 30.06 in 4.0 mi Calm Calm - N/A   Mostly Cloudy
1:12 AM 60.8 °F 60.8 °F 100% 30.03 in 0.8 mi NW 2.3 mph - N/A   Mostly Cloudy
1:37 AM 59.0 °F 59.0 °F 100% 30.04 in 0.8 mi Calm Calm - N/A   Mostly Cloudy
1:56 AM 59.0 °F 59.0 °F 100% 30.06 in 0.8 mi Calm Calm - N/A   Mostly Cloudy
2:55 AM 58.6 °F 58.6 °F 100% 30.04 in 1.5 mi NW 2.3 mph - N/A   Mostly Cloudy
3:35 AM 57.2 °F 57.2 °F 100% 30.02 in 0.5 mi NW 3.5 mph - N/A Fog Fog
3:56 AM 57.7 °F 57.7 °F 100% 30.04 in 0.2 mi NNW 1.2 mph - N/A Fog Fog
4:08 AM 57.2 °F 57.2 °F 100% 30.03 in 0.5 mi Calm Calm - N/A Fog Fog
4:34 AM 57.2 °F 57.2 °F 100% 30.03 in 3.0 mi NW 2.3 mph - N/A   Overcast
4:59 AM 57.7 °F 57.7 °F 100% 30.06 in 4.0 mi Calm Calm - N/A   Overcast
5:55 AM 58.1 °F 58.1 °F 100% 30.07 in 4.0 mi Calm Calm - N/A   Mostly Cloudy
6:16 AM 59.0 °F 59.0 °F 100% 30.06 in 2.5 mi NNE 2.3 mph - N/A   Overcast
6:23 AM 59.0 °F 59.0 °F 100% 30.06 in 0.8 mi Calm Calm - N/A   Overcast
6:33 AM 59.0 °F 59.0 °F 100% 30.06 in 0.5 mi NNE 3.5 mph - N/A Fog Fog
6:57 AM 59.5 °F 59.5 °F 100% 30.08 in 0.5 mi Calm Calm - N/A Fog Fog
7:21 AM 60.8 °F 60.8 °F 100% 30.07 in 0.2 mi Calm Calm - N/A Fog Fog
7:56 AM 60.4 °F 60.4 °F 100% 30.10 in 0.2 mi NNE 2.3 mph - N/A Fog Fog
8:55 AM 61.2 °F 61.2 °F 100% 30.11 in 1.5 mi NNW 1.2 mph - N/A   Overcast
9:11 AM 62.6 °F 62.6 °F 100% 30.09 in 3.0 mi NNE 3.5 mph - N/A   Mostly Cloudy
9:30 AM 62.6 °F 62.6 °F 100% 30.09 in 5.0 mi North 4.6 mph - N/A   Mostly Cloudy
9:49 AM 66.2 °F 62.6 °F 88% 30.09 in 6.0 mi North 2.3 mph - N/A   Mostly Cloudy
9:55 AM 66.2 °F 62.4 °F 88% 30.10 in 7.0 mi North 3.5 mph - N/A   Mostly Cloudy
10:55 AM 71.1 °F 58.3 °F 64% 30.10 in 7.0 mi NNW 6.9 mph - N/A   Mostly Cloudy
11:55 AM 71.4 °F 61.7 °F 71% 30.08 in 10.0 mi NE 2.3 mph - N/A   Mostly Cloudy
12:55 PM 72.1 °F 63.3 °F 74% 30.06 in 10.0 mi South 12.7 mph - N/A   Scattered Clouds
1:55 PM 69.4 °F 63.5 °F 81% 30.04 in 5.0 mi South 13.8 mph - N/A   Haze
2:55 PM 69.6 °F 63.7 °F 81% 30.03 in 6.0 mi South 11.5 mph - N/A   Haze
3:55 PM 71.1 °F 61.5 °F 72% 30.02 in 6.0 mi SW 10.4 mph - N/A   Haze
4:55 PM 70.7 °F 60.1 °F 69% 30.01 in 7.0 mi SW 9.2 mph - N/A   Scattered Clouds
5:55 PM 68.4 °F 61.2 °F 78% 30.03 in 7.0 mi SW 8.1 mph - N/A   Scattered Clouds
6:55 PM 66.6 °F 59.7 °F 79% 30.04 in 7.0 mi SW 5.8 mph - N/A   Scattered Clouds
7:55 PM 64.8 °F 59.9 °F 84% 30.06 in 7.0 mi WSW 4.6 mph - N/A   Partly Cloudy
8:55 PM 63.5 °F 60.4 °F 90% 30.06 in 8.0 mi NW 2.3 mph - N/A   Clear
9:55 PM 61.5 °F 60.1 °F 95% 30.07 in 8.0 mi Calm Calm - N/A   Partly Cloudy
10:55 PM 59.2 °F 58.5 °F 97% 30.07 in 8.0 mi Calm Calm - N/A   Clear
11:29 PM 59.0 °F 59.0 °F 100% 30.05 in 7.0 mi Calm Calm - N/A   Partly Cloudy
11:55 PM 58.8 °F 58.3 °F 98% 30.06 in 7.0 mi ENE 1.2 mph - N/A   Partly Cloudy